Javid Madatov

Recruteur en chef - Sumgayit
3 Févr 2028
Jeudi
Processus

Personnalité

Adaptabilité (14) Ambition (6) Controverse (6) Loyauté (1) Pression (14) Professionnalisme (19) Sportivité (15) Tempérament (12)

Profil

Style d'entraînement Démocratique
Diplôme National B
Détermination 9
Gestion des joueurs 9
Motivation 10
Discipline 7
Satisfaction professionnelle
100%
Fatigue
0%
Rôle Recruteur en chef
Salaire 58.7K p/s
Contrat 14.03.2028

Performance

Comportement Bon
Efficacité de l'entraînement
29%
Développement des joueurs
15%
Prévention des blessures
50%
Mise en place tactique
40%

Événements récents

Négociation de contrat entamée maintenant
A participé à une réunion de recrutement maintenant
Négociation de contrat entamée 7j
A évalué un joueur 7j
Négociation de contrat entamée 7j
A évalué un joueur 7j
Négociation de contrat entamée 7j
Négociation de contrat entamée 7j

Suivi en cours

94
Joueur Club Statut Capacité Confiance Observé Dernière observation Dernier vote
Afran Khalilzade Ravan Actif 91 / 93 51% 1 31.01.2028 -
Aldair Ramírez Chernomorets Actif 113 / 114 40% 2 28.01.2028 -
Agustín Gallo Tristán Suárez Actif 131 / 108 40% 2 28.01.2028 -
Törles Knöll Al-Ta'ee Actif 87 / 117 40% 2 27.01.2028 -
Manuele Malotti Livorno Actif 88 / 103 40% 1 27.01.2028 -
Dany Jean Torreense Actif 120 / 105 40% 1 25.01.2028 -
Sebastián Parada San Luis Actif 116 / 116 40% 1 25.01.2028 -
Seb Palmer-Houlden Gillingham Actif 106 / 112 40% 1 22.01.2028 -
Steven Alfred Torpedo-BelAZ Actif 97 / 112 40% 1 21.01.2028 -
Pablo Viudez Shrewsbury Town Actif 88 / 115 40% 1 21.01.2028 -
Abu-Said Eldarushev Rotor Actif 119 / 90 40% 1 19.01.2028 -
Həbib Hüşənov Gabala Actif 69 / 77 51% 1 17.01.2028 -
Esteban da Silva Racing Actif 106 / 98 40% 4 13.01.2028 -
Franco García Colón Actif 100 / 105 40% 1 09.01.2028 -
Cristian Uribe Universitario Popayan Actif 108 / 89 40% 1 09.01.2028 -
Razhab Magomedov Dinamo Makhachkala Actif 105 / 109 40% 2 07.01.2028 -
Guljigit Borubaev Neman Actif 87 / 88 40% 1 06.01.2028 -
Beryly Lubala Vicenza Actif 124 / 111 40% 4 02.01.2028 -
Angel Uñates Güemes Actif 90 / 78 40% 1 02.01.2028 -
Lucas Pedraza Defensores Unidos Actif 96 / 99 40% 2 01.01.2028 -
Facundo Rizzi Güemes Actif 115 / 104 40% 1 30.08.2027 -
Simón Contreras Iquique Actif 115 / 94 40% 1 30.08.2027 -
Afriyie Sulemana Hasaacas Actif 87 / 86 40% 1 29.08.2027 -
Tobías Leiva Estudiantes Actif 105 / 124 40% 1 27.08.2027 -
Agustín Bolívar Quilmes Actif 102 / 101 40% 1 27.08.2027 -
Nicolás Previtali Atlanta Actif 97 / 115 40% 2 26.08.2027 -
Brian Calderara Chacarita Juniors Actif 98 / 100 40% 1 25.08.2027 -
Mauro Osores San Martín SJ Actif 127 / 116 40% 1 24.08.2027 -
Facundo Cardozo San Miguel Actif 115 / 121 40% 1 24.08.2027 -
Rodrigo Ramírez Nueva Chicago Actif 123 / 129 40% 1 23.08.2027 -
Emanuel Iñíguez Morón Actif 109 / 113 40% 1 21.08.2027 -
Alessio Maestrelli Ternana Actif 115 / 114 40% 3 18.08.2027 -
Destiny Efosa Egharevba Picerno Actif 96 / 112 40% 4 18.08.2027 -
Juan Peinipil Madryn Actif 117 / 102 40% 1 18.08.2027 -
Saliou Guindo MC Oran Actif 101 / 100 40% 2 16.08.2027 -
Lautaro Núñez Alvarado Actif 122 / 114 40% 1 16.08.2027 -
Mauricio Lacerda Miramar Misiones Actif 80 / 82 40% 1 14.08.2027 -
Lisandro Cabrera Maipú Actif 134 / 110 40% 1 13.08.2027 -
Cheickna Samaké Djoliba Actif 99 / 87 40% 1 13.08.2027 -
Franco Malagueño Colegiales Actif 117 / 94 40% 1 13.08.2027 -
Agustín Dattola Almirante Brown Actif 101 / 118 40% 1 13.08.2027 -
Vladislav Fedosov Slutsk Actif 98 / 71 40% 1 10.08.2027 -
Santiago Apa All Boys Actif 121 / 99 40% 1 10.08.2027 -
Owen Falconis Cerrito Actif 84 / 101 40% 1 05.08.2027 -
Kane Drummond Oldham Athletic Actif 95 / 87 40% 2 04.08.2027 -
Chinedu Onyinjekwu Bayelsa United Actif 106 / 78 40% 2 04.08.2027 -
Lautaro Gordillo Colegiales Actif 105 / 96 40% 1 03.08.2027 -
Juan Cruz Franzoni Gimnasia y Esgrima Actif 111 / 105 40% 1 31.07.2027 -
Harvey Saunders Tranmere Rovers Actif 103 / 79 40% 4 30.07.2027 -
Francisco Borda Central Norte Actif 94 / 105 40% 1 29.07.2027 -
Fərid Nəbiyev Kapaz Actif 105 / 105 40% 2 24.07.2027 -
Leandro Lucero Temperley Actif 115 / 122 40% 1 24.07.2027 -
Mats Egbring Heerenveen Actif 112 / 107 40% 1 17.07.2027 -
Ilja Safronov Rotor Actif 100 / 106 40% 2 13.07.2027 -
Chinonso Chibueze Harrogate Town Actif 93 / 99 40% 1 13.07.2027 -
Alexandr Kanaplin Yenisey Actif 106 / 104 40% 1 12.07.2027 -
Maxim Kutovoy Salyut Actif 108 / 69 40% 1 10.07.2027 -
Stanislav Biblyk Chaika Actif 79 / 97 40% 2 09.07.2027 -
Rufat Garayev Ravan Actif 111 / 94 40% 1 08.07.2027 -
Abubakar Bonni Enyimba Actif 68 / 78 40% 1 07.07.2027 -
Leon Sabua Neftekhimik Actif 96 / 112 40% 1 05.07.2027 -
Qara Bayramov AZAL Actif 122 / 126 40% 1 05.07.2027 -
Nikita Simdyankin KDV Tomsk Actif 93 / 102 40% 1 04.07.2027 -
Danil Karpov Chernomorets Actif 93 / 102 40% 1 03.07.2027 -
Haji Mnoga Salford City Actif 85 / 96 40% 1 03.07.2027 -
Ruslan Fischenko Rodina Actif 117 / 102 40% 1 30.06.2027 -
Andrey Okladnikov Yenisey Actif 99 / 88 40% 2 29.06.2027 -
Daniil Konoplev Dinamo Bryansk Actif 71 / 76 40% 1 29.06.2027 -
Saman Karimi Gostaresh Foulad Actif 94 / 96 40% 2 28.06.2027 -
Gonçalo Braga Lusitânia Lourosa Actif 89 / 90 40% 1 28.06.2027 -
Dom Jefferies Lincoln City Actif 125 / 104 40% 1 25.06.2027 -
Francesco Rillo Picerno Actif 90 / 81 40% 1 24.06.2027 -
José Álvarez Arsenal Tula Actif 125 / 106 40% 1 23.06.2027 -
Nicolás Paz San Martín SJ Actif 117 / 116 40% 1 21.06.2027 -
Ismaël Baouf Cambuur Actif 110 / 111 40% 1 20.06.2027 -
Félix Eboa Eboa Arda Actif 93 / 124 40% 1 18.06.2027 -
Simone Kosijer Triestina Actif 94 / 117 40% 1 17.06.2027 -
Stéphane Acka Zira Actif 90 / 83 48% 1 14.06.2027 -
Kamran Aliev SKA Khabarovsk Actif 110 / 103 40% 1 10.06.2027 -
Dilan Ortíz Ufa Actif 93 / 116 40% 3 09.06.2027 -
Mohammad Javad Mohammadi Zob Ahan Actif 122 / 89 40% 1 08.06.2027 -
Orlando Mareco Neftchi Actif 105 / 79 48% 1 07.06.2027 -
Denis Mironov Shinnik Actif 96 / 77 40% 1 05.06.2027 -
Mikhail Gainov Dinamo Stavropol Actif 91 / 75 40% 1 01.06.2027 -
Alan Tsaraev Arsenal Tula Actif 97 / 107 40% 1 31.01.2027 -
Brahim Konaté Zira Actif 119 / 119 40% 1 30.01.2027 -
Paulo Vitor Akron Actif 100 / 97 40% 1 27.01.2027 -
Luca Connell Barnsley Actif 130 / 130 40% 1 24.01.2027 -
Hakeem Odoffin Luton Town Actif 128 / 102 40% 1 24.01.2027 -
Oleg Lanin Shinnik Actif 96 / 90 40% 1 22.01.2027 -
Rodrigo Escoval Akron Actif 97 / 99 40% 1 21.01.2027 -
Danila Yezhkov Dinamo Vologda Actif 96 / 74 40% 1 13.01.2027 -
Alexandr Saplinov Volga Actif 103 / 90 40% 1 05.01.2027 -
Rashad Ismayilov Actif 101 / 100 48% 1 17.08.2026 -